Year,Month,Day,Hour,Minute,Value (Times are PST for temperature in C)
2009,07,20,00,00,14.10
2009,07,20,00,01,14.10
2009,07,20,00,02,14.10
2009,07,20,00,03,14.10
2009,07,20,00,04,14.10
2009,07,20,00,05,14.00
2009,07,20,00,06,14.00
2009,07,20,00,07,14.00
2009,07,20,00,08,14.00
2009,07,20,00,09,14.10
2009,07,20,00,10,14.10
2009,07,20,00,11,14.10
2009,07,20,00,12,14.10
2009,07,20,00,13,14.10
2009,07,20,00,14,14.10
2009,07,20,00,15,14.10
2009,07,20,00,16,14.10
2009,07,20,00,17,14.10
2009,07,20,00,18,14.10
2009,07,20,00,19,14.10
2009,07,20,00,20,14.10
2009,07,20,00,21,14.10
2009,07,20,00,22,14.10
2009,07,20,00,23,14.10
2009,07,20,00,24,14.10
2009,07,20,00,25,14.10
2009,07,20,00,26,14.10
2009,07,20,00,27,14.10
2009,07,20,00,28,14.10
2009,07,20,00,29,14.10
2009,07,20,00,30,14.10
2009,07,20,00,31,14.00
2009,07,20,00,32,14.00
2009,07,20,00,33,14.00
2009,07,20,00,34,14.00
2009,07,20,00,35,13.90
2009,07,20,00,36,13.90
2009,07,20,00,37,13.90
2009,07,20,00,38,13.90
2009,07,20,00,39,13.90
2009,07,20,00,40,13.80
2009,07,20,00,41,13.80
2009,07,20,00,42,13.80
2009,07,20,00,43,13.80
2009,07,20,00,44,13.80
2009,07,20,00,45,13.80
2009,07,20,00,46,13.80
2009,07,20,00,47,13.80
2009,07,20,00,48,13.90
2009,07,20,00,49,13.90
2009,07,20,00,50,13.90
2009,07,20,00,51,13.90
2009,07,20,00,52,13.90
2009,07,20,00,53,13.90
2009,07,20,00,54,13.90
2009,07,20,00,55,13.90
2009,07,20,00,56,13.90
2009,07,20,00,57,13.90
2009,07,20,00,58,13.90
2009,07,20,00,59,13.90
2009,07,20,01,00,13.90
2009,07,20,01,01,13.80
2009,07,20,01,02,13.80
2009,07,20,01,03,13.80
2009,07,20,01,04,13.80
2009,07,20,01,05,13.80
2009,07,20,01,06,13.80
2009,07,20,01,07,13.80
2009,07,20,01,08,13.80
2009,07,20,01,09,13.80
2009,07,20,01,10,13.80
2009,07,20,01,11,13.80
2009,07,20,01,12,13.80
2009,07,20,01,13,13.80
2009,07,20,01,14,13.80
2009,07,20,01,15,13.70
2009,07,20,01,16,13.70
2009,07,20,01,17,13.70
2009,07,20,01,18,13.70
2009,07,20,01,19,13.70
2009,07,20,01,20,13.60
2009,07,20,01,21,13.60
2009,07,20,01,22,13.60
2009,07,20,01,23,13.60
2009,07,20,01,24,13.50
2009,07,20,01,25,13.50
2009,07,20,01,26,13.50
2009,07,20,01,27,13.40
2009,07,20,01,28,13.40
2009,07,20,01,29,13.40
2009,07,20,01,30,13.40
2009,07,20,01,31,13.40
2009,07,20,01,32,13.30
2009,07,20,01,33,13.30
2009,07,20,01,34,13.30
2009,07,20,01,35,13.30
2009,07,20,01,36,13.30
2009,07,20,01,37,13.30
2009,07,20,01,38,13.30
2009,07,20,01,39,13.30
2009,07,20,01,40,13.30
2009,07,20,01,41,13.40
2009,07,20,01,42,13.40
2009,07,20,01,43,13.50
2009,07,20,01,44,13.50
2009,07,20,01,45,13.60
2009,07,20,01,46,13.60
2009,07,20,01,47,13.60
2009,07,20,01,48,13.70
2009,07,20,01,49,13.70
2009,07,20,01,50,13.80
2009,07,20,01,51,13.80
2009,07,20,01,52,13.80
2009,07,20,01,53,13.80
2009,07,20,01,54,13.90
2009,07,20,01,55,13.90
2009,07,20,01,56,13.90
2009,07,20,01,57,13.90
2009,07,20,01,58,13.90
2009,07,20,01,59,13.90
2009,07,20,02,00,13.90
2009,07,20,02,01,13.90
2009,07,20,02,02,13.80
2009,07,20,02,03,13.80
2009,07,20,02,04,13.80
2009,07,20,02,05,13.80
2009,07,20,02,06,13.80
2009,07,20,02,07,13.80
2009,07,20,02,08,13.80
2009,07,20,02,09,13.80
2009,07,20,02,10,13.80
2009,07,20,02,11,13.80
2009,07,20,02,12,13.70
2009,07,20,02,13,13.70
2009,07,20,02,14,13.70
2009,07,20,02,15,13.70
2009,07,20,02,16,13.70
2009,07,20,02,17,13.70
2009,07,20,02,18,13.70
2009,07,20,02,19,13.70
2009,07,20,02,20,13.70
2009,07,20,02,21,13.70
2009,07,20,02,22,13.60
2009,07,20,02,23,13.60
2009,07,20,02,24,13.60
2009,07,20,02,25,13.60
2009,07,20,02,26,13.60
2009,07,20,02,27,13.70
2009,07,20,02,28,13.70
2009,07,20,02,29,13.70
2009,07,20,02,30,13.80
2009,07,20,02,31,13.80
2009,07,20,02,32,13.80
2009,07,20,02,33,13.80
2009,07,20,02,34,13.80
2009,07,20,02,35,13.80
2009,07,20,02,36,13.80
2009,07,20,02,37,13.80
2009,07,20,02,38,13.80
2009,07,20,02,39,13.80
2009,07,20,02,40,13.80
2009,07,20,02,41,13.70
2009,07,20,02,42,13.70
2009,07,20,02,43,13.70
2009,07,20,02,44,13.70
2009,07,20,02,45,13.70
2009,07,20,02,46,13.70
2009,07,20,02,47,13.70
2009,07,20,02,48,13.70
2009,07,20,02,49,13.70
2009,07,20,02,50,13.70
2009,07,20,02,51,13.70
2009,07,20,02,52,13.70
2009,07,20,02,53,13.70
2009,07,20,02,54,13.70
2009,07,20,02,55,13.70
2009,07,20,02,56,13.70
2009,07,20,02,57,13.70
2009,07,20,02,58,13.60
2009,07,20,02,59,13.60
2009,07,20,03,00,13.60
2009,07,20,03,01,13.60
2009,07,20,03,02,13.50
2009,07,20,03,03,13.50
2009,07,20,03,04,13.50
2009,07,20,03,05,13.40
2009,07,20,03,06,13.40
2009,07,20,03,07,13.40
2009,07,20,03,08,13.40
2009,07,20,03,09,13.40
2009,07,20,03,10,13.40
2009,07,20,03,11,13.40
2009,07,20,03,12,13.30
2009,07,20,03,13,13.30
2009,07,20,03,14,13.30
2009,07,20,03,15,13.30
2009,07,20,03,16,13.30
2009,07,20,03,17,13.30
2009,07,20,03,18,13.30
2009,07,20,03,19,13.30
2009,07,20,03,20,13.30
2009,07,20,03,21,13.30
2009,07,20,03,22,13.30
2009,07,20,03,23,13.30
2009,07,20,03,24,13.30
2009,07,20,03,25,13.30
2009,07,20,03,26,13.30
2009,07,20,03,27,13.30
2009,07,20,03,28,13.30
2009,07,20,03,29,13.30
2009,07,20,03,30,13.30
2009,07,20,03,31,13.30
2009,07,20,03,32,13.30
2009,07,20,03,33,13.30
2009,07,20,03,34,13.20
2009,07,20,03,35,13.20
2009,07,20,03,36,13.20
2009,07,20,03,37,13.30
2009,07,20,03,38,13.30
2009,07,20,03,39,13.30
2009,07,20,03,40,13.30
2009,07,20,03,41,13.30
2009,07,20,03,42,13.30
2009,07,20,03,43,13.30
2009,07,20,03,44,13.30
2009,07,20,03,45,13.30
2009,07,20,03,46,13.30
2009,07,20,03,47,13.30
2009,07,20,03,48,13.20
2009,07,20,03,49,13.20
2009,07,20,03,50,13.20
2009,07,20,03,51,13.20
2009,07,20,03,52,13.20
2009,07,20,03,53,13.10
2009,07,20,03,54,13.10
2009,07,20,03,55,13.10
2009,07,20,03,56,13.10
2009,07,20,03,57,13.10
2009,07,20,03,58,13.10
2009,07,20,03,59,13.10
2009,07,20,04,00,13.00
2009,07,20,04,01,13.00
2009,07,20,04,02,13.00
2009,07,20,04,03,12.90
2009,07,20,04,04,12.90
2009,07,20,04,05,12.90
2009,07,20,04,06,12.90
2009,07,20,04,07,12.90
2009,07,20,04,08,12.90
2009,07,20,04,09,12.80
2009,07,20,04,10,12.80
2009,07,20,04,11,12.80
2009,07,20,04,12,12.90
2009,07,20,04,13,12.90
2009,07,20,04,14,12.90
2009,07,20,04,15,13.00
2009,07,20,04,16,13.00
2009,07,20,04,17,13.10
2009,07,20,04,18,13.10
2009,07,20,04,19,13.10
2009,07,20,04,20,13.10
2009,07,20,04,21,13.10
2009,07,20,04,22,13.10
2009,07,20,04,23,13.10
2009,07,20,04,24,13.10
2009,07,20,04,25,13.00
2009,07,20,04,26,13.00
2009,07,20,04,27,13.00
2009,07,20,04,28,13.00
2009,07,20,04,29,12.90
2009,07,20,04,30,12.90
2009,07,20,04,31,12.90
2009,07,20,04,32,12.90
2009,07,20,04,33,12.80
2009,07,20,04,34,12.80
2009,07,20,04,35,12.80
2009,07,20,04,36,12.80
2009,07,20,04,37,12.70
2009,07,20,04,38,12.70
2009,07,20,04,39,12.70
2009,07,20,04,40,12.70
2009,07,20,04,41,12.60
2009,07,20,04,42,12.60
2009,07,20,04,43,12.60
2009,07,20,04,44,12.60
2009,07,20,04,45,12.60
2009,07,20,04,46,12.50
2009,07,20,04,47,12.50
2009,07,20,04,48,12.50
2009,07,20,04,49,12.40
2009,07,20,04,50,12.40
2009,07,20,04,51,12.40
2009,07,20,04,52,12.40
2009,07,20,04,53,12.40
2009,07,20,04,54,12.40
2009,07,20,04,55,12.30
2009,07,20,04,56,12.30
2009,07,20,04,57,12.30
2009,07,20,04,58,12.30
2009,07,20,04,59,12.20
2009,07,20,05,00,12.20
2009,07,20,05,01,12.20
2009,07,20,05,02,12.20
2009,07,20,05,03,12.20
2009,07,20,05,04,12.20
2009,07,20,05,05,12.10
2009,07,20,05,06,12.00
2009,07,20,05,07,11.90
2009,07,20,05,08,11.80
2009,07,20,05,09,11.80
2009,07,20,05,10,11.70
2009,07,20,05,11,11.60
2009,07,20,05,12,11.60
2009,07,20,05,13,11.50
2009,07,20,05,14,11.40
2009,07,20,05,15,11.40
2009,07,20,05,16,11.40
2009,07,20,05,17,11.30
2009,07,20,05,18,11.30
2009,07,20,05,19,11.30
2009,07,20,05,20,11.30
2009,07,20,05,21,11.20
2009,07,20,05,22,11.20
2009,07,20,05,23,11.20
2009,07,20,05,24,11.20
2009,07,20,05,25,11.20
2009,07,20,05,26,11.20
2009,07,20,05,27,11.20
2009,07,20,05,28,11.20
2009,07,20,05,29,11.20
2009,07,20,05,30,11.30
2009,07,20,05,31,11.30
2009,07,20,05,32,11.40
2009,07,20,05,33,11.40
2009,07,20,05,34,11.40
2009,07,20,05,35,11.50
2009,07,20,05,36,11.50
2009,07,20,05,37,11.50
2009,07,20,05,38,11.60
2009,07,20,05,39,11.60
2009,07,20,05,40,11.70
2009,07,20,05,41,11.70
2009,07,20,05,42,11.70
2009,07,20,05,43,11.80
2009,07,20,05,44,11.80
2009,07,20,05,45,11.80
2009,07,20,05,46,11.90
2009,07,20,05,47,11.90
2009,07,20,05,48,11.90
2009,07,20,05,49,11.90
2009,07,20,05,50,11.90
2009,07,20,05,51,11.90
2009,07,20,05,52,12.00
2009,07,20,05,53,12.00
2009,07,20,05,54,12.00
2009,07,20,05,55,12.00
2009,07,20,05,56,12.10
2009,07,20,05,57,12.10
2009,07,20,05,58,12.10
2009,07,20,05,59,12.10
2009,07,20,06,00,12.10
2009,07,20,06,01,12.10
2009,07,20,06,02,12.10
2009,07,20,06,03,12.20
2009,07,20,06,04,12.20
2009,07,20,06,05,12.20
2009,07,20,06,06,12.20
2009,07,20,06,07,12.20
2009,07,20,06,08,12.20
2009,07,20,06,09,12.20
2009,07,20,06,10,12.20
2009,07,20,06,11,12.20
2009,07,20,06,12,12.20
2009,07,20,06,13,12.20
2009,07,20,06,14,12.20
2009,07,20,06,15,12.30
2009,07,20,06,16,12.30
2009,07,20,06,17,12.30
2009,07,20,06,18,12.30
2009,07,20,06,19,12.40
2009,07,20,06,20,12.40
2009,07,20,06,21,12.40
2009,07,20,06,22,12.50
2009,07,20,06,23,12.50
2009,07,20,06,24,12.60
2009,07,20,06,25,12.60
2009,07,20,06,26,12.70
2009,07,20,06,27,12.70
2009,07,20,06,28,12.70
2009,07,20,06,29,12.80
2009,07,20,06,30,12.80
2009,07,20,06,31,12.80
2009,07,20,06,32,12.80
2009,07,20,06,33,12.80
2009,07,20,06,34,12.80
2009,07,20,06,35,12.80
2009,07,20,06,36,12.80
2009,07,20,06,37,12.90
2009,07,20,06,38,12.90
2009,07,20,06,39,12.90
2009,07,20,06,40,13.00
2009,07,20,06,41,13.00
2009,07,20,06,42,13.10
2009,07,20,06,43,13.10
2009,07,20,06,44,13.10
2009,07,20,06,45,13.00
2009,07,20,06,46,13.00
2009,07,20,06,47,13.00
2009,07,20,06,48,13.10
2009,07,20,06,49,13.10
2009,07,20,06,50,13.10
2009,07,20,06,51,13.10
2009,07,20,06,52,13.10
2009,07,20,06,53,13.10
2009,07,20,06,54,13.10
2009,07,20,06,55,13.00
2009,07,20,06,56,13.00
2009,07,20,06,57,13.10
2009,07,20,06,58,13.10
2009,07,20,06,59,13.10
2009,07,20,07,00,13.10
2009,07,20,07,01,13.10
2009,07,20,07,02,13.10
2009,07,20,07,03,13.10
2009,07,20,07,04,13.10
2009,07,20,07,05,13.10
2009,07,20,07,06,13.10
2009,07,20,07,07,13.10
2009,07,20,07,08,13.10
2009,07,20,07,09,13.00
2009,07,20,07,10,13.00
2009,07,20,07,11,12.90
2009,07,20,07,12,12.80
2009,07,20,07,13,12.80
2009,07,20,07,14,12.80
2009,07,20,07,15,12.80
2009,07,20,07,16,12.70
2009,07,20,07,17,12.80
2009,07,20,07,18,12.80
2009,07,20,07,19,12.80
2009,07,20,07,20,12.80
2009,07,20,07,21,12.90
2009,07,20,07,22,12.90
2009,07,20,07,23,12.90
2009,07,20,07,24,13.00
2009,07,20,07,25,13.10
2009,07,20,07,26,13.10
2009,07,20,07,27,13.20
2009,07,20,07,28,13.30
2009,07,20,07,29,13.50
2009,07,20,07,30,13.60
2009,07,20,07,31,13.70
2009,07,20,07,32,13.80
2009,07,20,07,33,14.00
2009,07,20,07,34,14.00
2009,07,20,07,35,14.10
2009,07,20,07,36,14.20
2009,07,20,07,37,14.20
2009,07,20,07,38,14.30
2009,07,20,07,39,14.30
2009,07,20,07,40,14.30
2009,07,20,07,41,14.40
2009,07,20,07,42,14.40
2009,07,20,07,43,14.40
2009,07,20,07,44,14.50
2009,07,20,07,45,14.50
2009,07,20,07,46,14.60
2009,07,20,07,47,14.70
2009,07,20,07,48,14.80
2009,07,20,07,49,14.90
2009,07,20,07,50,15.00
2009,07,20,07,51,15.00
2009,07,20,07,52,15.00
2009,07,20,07,53,15.00
2009,07,20,07,54,15.00
2009,07,20,07,55,15.00
2009,07,20,07,56,15.00
2009,07,20,07,57,15.00
2009,07,20,07,58,15.00
2009,07,20,07,59,15.10
2009,07,20,08,00,15.20
2009,07,20,08,01,15.20
2009,07,20,08,02,15.30
2009,07,20,08,03,15.30
2009,07,20,08,04,15.40
2009,07,20,08,05,15.50
2009,07,20,08,06,15.60
2009,07,20,08,07,15.70
2009,07,20,08,08,15.80
2009,07,20,08,09,15.90
2009,07,20,08,10,16.00
2009,07,20,08,11,16.00
2009,07,20,08,12,16.10
2009,07,20,08,13,16.20
2009,07,20,08,14,16.30
2009,07,20,08,15,16.40
2009,07,20,08,16,16.50
2009,07,20,08,17,16.50
2009,07,20,08,18,16.60
2009,07,20,08,19,16.70
2009,07,20,08,20,16.70
2009,07,20,08,21,16.80
2009,07,20,08,22,16.80
2009,07,20,08,23,16.90
2009,07,20,08,24,17.00
2009,07,20,08,25,17.20
2009,07,20,08,26,17.30
2009,07,20,08,27,17.30
2009,07,20,08,28,17.30
2009,07,20,08,29,17.30
2009,07,20,08,30,17.20
2009,07,20,08,31,17.10
2009,07,20,08,32,17.00
2009,07,20,08,33,16.90
2009,07,20,08,34,16.90
2009,07,20,08,35,17.00
2009,07,20,08,36,17.00
2009,07,20,08,37,17.00
2009,07,20,08,38,17.10
2009,07,20,08,39,17.20
2009,07,20,08,40,17.20
2009,07,20,08,41,17.30
2009,07,20,08,42,17.40
2009,07,20,08,43,17.50
2009,07,20,08,44,17.60
2009,07,20,08,45,17.60
2009,07,20,08,46,17.70
2009,07,20,08,47,17.80
2009,07,20,08,48,17.80
2009,07,20,08,49,17.90
2009,07,20,08,50,17.90
2009,07,20,08,51,18.00
2009,07,20,08,52,18.00
2009,07,20,08,53,18.00
2009,07,20,08,54,18.10
2009,07,20,08,55,18.10
2009,07,20,08,56,18.20
2009,07,20,08,57,18.40
2009,07,20,08,58,18.50
2009,07,20,08,59,18.70
2009,07,20,09,00,18.70
2009,07,20,09,01,18.70
2009,07,20,09,02,18.70
2009,07,20,09,03,18.70
2009,07,20,09,04,18.70
2009,07,20,09,05,18.70
2009,07,20,09,06,18.90
2009,07,20,09,07,18.90
2009,07,20,09,08,19.00
2009,07,20,09,09,18.90
2009,07,20,09,10,18.80
2009,07,20,09,11,18.80
2009,07,20,09,12,18.80
2009,07,20,09,13,18.70
2009,07,20,09,14,18.60
2009,07,20,09,15,18.60
2009,07,20,09,16,18.60
2009,07,20,09,17,18.60
2009,07,20,09,18,18.60
2009,07,20,09,19,18.70
2009,07,20,09,20,18.70
2009,07,20,09,21,18.80
2009,07,20,09,22,18.80
2009,07,20,09,23,18.80
2009,07,20,09,24,18.90
2009,07,20,09,25,19.00
2009,07,20,09,26,19.10
2009,07,20,09,27,19.10
2009,07,20,09,28,19.10
2009,07,20,09,29,19.10
2009,07,20,09,30,19.20
2009,07,20,09,31,19.20
2009,07,20,09,32,19.30
2009,07,20,09,33,19.30
2009,07,20,09,34,19.20
2009,07,20,09,35,19.20
2009,07,20,09,36,19.20
2009,07,20,09,37,19.20
2009,07,20,09,38,19.20
2009,07,20,09,39,19.20
2009,07,20,09,40,19.20
2009,07,20,09,41,19.20
2009,07,20,09,42,19.30
2009,07,20,09,43,19.40
2009,07,20,09,44,19.50
2009,07,20,09,45,19.70
2009,07,20,09,46,19.90
2009,07,20,09,47,20.10
2009,07,20,09,48,20.30
2009,07,20,09,49,20.50
2009,07,20,09,50,20.70
2009,07,20,09,51,20.80
2009,07,20,09,52,21.00
2009,07,20,09,53,21.10
2009,07,20,09,54,21.10
2009,07,20,09,55,21.20
2009,07,20,09,56,21.30
2009,07,20,09,57,21.30
2009,07,20,09,58,21.40
2009,07,20,09,59,21.10
2009,07,20,10,00,20.60
2009,07,20,10,01,20.20
2009,07,20,10,02,19.90
2009,07,20,10,03,19.80
2009,07,20,10,04,19.80
2009,07,20,10,05,19.80
2009,07,20,10,06,19.90
2009,07,20,10,07,20.10
2009,07,20,10,08,20.30
2009,07,20,10,09,20.60
2009,07,20,10,10,20.80
2009,07,20,10,11,21.00
2009,07,20,10,12,21.10
2009,07,20,10,13,21.30
2009,07,20,10,14,21.40
2009,07,20,10,15,21.50
2009,07,20,10,16,21.70
2009,07,20,10,17,21.80
2009,07,20,10,18,21.80
2009,07,20,10,19,21.80
2009,07,20,10,20,21.80
2009,07,20,10,21,21.80
2009,07,20,10,22,21.80
2009,07,20,10,23,21.90
2009,07,20,10,24,21.90
2009,07,20,10,25,21.90
2009,07,20,10,26,22.00
2009,07,20,10,27,22.10
2009,07,20,10,28,22.10
2009,07,20,10,29,22.20
2009,07,20,10,30,22.20
2009,07,20,10,31,22.30
2009,07,20,10,32,22.30
2009,07,20,10,33,22.40
2009,07,20,10,34,22.50
2009,07,20,10,35,22.60
2009,07,20,10,36,22.60
2009,07,20,10,37,22.70
2009,07,20,10,38,22.60
2009,07,20,10,39,22.60
2009,07,20,10,40,22.50
2009,07,20,10,41,22.60
2009,07,20,10,42,22.60
2009,07,20,10,43,22.70
2009,07,20,10,44,22.70
2009,07,20,10,45,22.70
2009,07,20,10,46,22.70
2009,07,20,10,47,22.70
2009,07,20,10,48,22.70
2009,07,20,10,49,22.60
2009,07,20,10,50,22.70
2009,07,20,10,51,22.70
2009,07,20,10,52,22.60
2009,07,20,10,53,22.70
2009,07,20,10,54,22.70
2009,07,20,10,55,22.80
2009,07,20,10,56,22.80
2009,07,20,10,57,22.90
2009,07,20,10,58,22.90
2009,07,20,10,59,22.80
2009,07,20,11,00,22.70
2009,07,20,11,01,22.50
2009,07,20,11,02,22.40
2009,07,20,11,03,22.20
2009,07,20,11,04,22.00
2009,07,20,11,05,21.80
2009,07,20,11,06,21.70
2009,07,20,11,07,21.60
2009,07,20,11,08,21.50
2009,07,20,11,09,21.50
2009,07,20,11,10,21.50
2009,07,20,11,11,21.60
2009,07,20,11,12,21.60
2009,07,20,11,13,21.60
2009,07,20,11,14,21.60
2009,07,20,11,15,21.70
2009,07,20,11,16,21.80
2009,07,20,11,17,21.90
2009,07,20,11,18,22.10
2009,07,20,11,19,22.30
2009,07,20,11,20,22.50
2009,07,20,11,21,22.70
2009,07,20,11,22,22.90
2009,07,20,11,23,23.00
2009,07,20,11,24,23.10
2009,07,20,11,25,23.10
2009,07,20,11,26,23.20
2009,07,20,11,27,23.30
2009,07,20,11,28,23.30
2009,07,20,11,29,23.30
2009,07,20,11,30,23.30
2009,07,20,11,31,23.30
2009,07,20,11,32,23.30
2009,07,20,11,33,23.30
2009,07,20,11,34,23.40
2009,07,20,11,35,23.60
2009,07,20,11,36,23.70
2009,07,20,11,37,23.70
2009,07,20,11,38,23.80
2009,07,20,11,39,23.80
2009,07,20,11,40,23.70
2009,07,20,11,41,23.70
2009,07,20,11,42,23.80
2009,07,20,11,43,23.80
2009,07,20,11,44,23.80
2009,07,20,11,45,23.80
2009,07,20,11,46,23.80
2009,07,20,11,47,23.80
2009,07,20,11,48,23.80
2009,07,20,11,49,23.90
2009,07,20,11,50,23.90
2009,07,20,11,51,23.80
2009,07,20,11,52,23.80
2009,07,20,11,53,23.80
2009,07,20,11,54,23.90
2009,07,20,11,55,24.00
2009,07,20,11,56,24.00
2009,07,20,11,57,24.10
2009,07,20,11,58,24.20
2009,07,20,11,59,24.20
2009,07,20,12,00,24.30
2009,07,20,12,01,24.20
2009,07,20,12,02,24.10
2009,07,20,12,03,24.10
2009,07,20,12,04,24.10
2009,07,20,12,05,24.00
2009,07,20,12,06,24.00
2009,07,20,12,07,24.10
2009,07,20,12,08,24.20
2009,07,20,12,09,24.30
2009,07,20,12,10,24.30
2009,07,20,12,11,24.30
2009,07,20,12,12,24.40
2009,07,20,12,13,24.40
2009,07,20,12,14,24.30
2009,07,20,12,15,24.30
2009,07,20,12,16,24.30
2009,07,20,12,17,24.30
2009,07,20,12,18,24.40
2009,07,20,12,19,24.40
2009,07,20,12,20,24.40
2009,07,20,12,21,24.30
2009,07,20,12,22,24.30
2009,07,20,12,23,24.20
2009,07,20,12,24,24.20
2009,07,20,12,25,24.10
2009,07,20,12,26,24.10
2009,07,20,12,27,24.10
2009,07,20,12,28,24.10
2009,07,20,12,29,24.00
2009,07,20,12,30,23.80
2009,07,20,12,31,23.50
2009,07,20,12,32,23.10
2009,07,20,12,33,22.70
2009,07,20,12,34,22.30
2009,07,20,12,35,21.80
2009,07,20,12,36,21.40
2009,07,20,12,37,21.00
2009,07,20,12,38,20.60
2009,07,20,12,39,20.20
2009,07,20,12,40,20.00
2009,07,20,12,41,20.00
2009,07,20,12,42,20.00
2009,07,20,12,43,20.10
2009,07,20,12,44,20.30
2009,07,20,12,45,20.50
2009,07,20,12,46,20.70
2009,07,20,12,47,20.90
2009,07,20,12,48,21.00
2009,07,20,12,49,21.10
2009,07,20,12,50,21.10
2009,07,20,12,51,21.10
2009,07,20,12,52,21.20
2009,07,20,12,53,21.30
2009,07,20,12,54,21.30
2009,07,20,12,55,21.40
2009,07,20,12,56,21.50
2009,07,20,12,57,21.70
2009,07,20,12,58,21.80
2009,07,20,12,59,21.80
2009,07,20,13,00,21.70
2009,07,20,13,01,21.40
2009,07,20,13,02,21.10
2009,07,20,13,03,20.80
2009,07,20,13,04,20.40
2009,07,20,13,05,20.00
2009,07,20,13,06,19.70
2009,07,20,13,07,19.50
2009,07,20,13,08,19.50
2009,07,20,13,09,19.60
2009,07,20,13,10,19.80
2009,07,20,13,11,20.10
2009,07,20,13,12,20.30
2009,07,20,13,13,20.50
2009,07,20,13,14,20.80
2009,07,20,13,15,21.10
2009,07,20,13,16,21.30
2009,07,20,13,17,21.50
2009,07,20,13,18,21.80
2009,07,20,13,19,22.10
2009,07,20,13,20,22.50
2009,07,20,13,21,22.90
2009,07,20,13,22,23.20
2009,07,20,13,23,23.50
2009,07,20,13,24,23.80
2009,07,20,13,25,23.90
2009,07,20,13,26,24.10
2009,07,20,13,27,24.30
2009,07,20,13,28,24.50
2009,07,20,13,29,24.60
2009,07,20,13,30,24.80
2009,07,20,13,31,24.90
2009,07,20,13,32,25.00
2009,07,20,13,33,25.10
2009,07,20,13,34,25.00
2009,07,20,13,35,24.60
2009,07,20,13,36,24.10
2009,07,20,13,37,23.50
2009,07,20,13,38,23.00
2009,07,20,13,39,22.50
2009,07,20,13,40,22.00
2009,07,20,13,41,21.70
2009,07,20,13,42,21.60
2009,07,20,13,43,21.50
2009,07,20,13,44,21.40
2009,07,20,13,45,21.50
2009,07,20,13,46,21.50
2009,07,20,13,47,21.60
2009,07,20,13,48,21.70
2009,07,20,13,49,21.90
2009,07,20,13,50,22.20
2009,07,20,13,51,22.20
2009,07,20,13,52,22.40
2009,07,20,13,53,22.60
2009,07,20,13,54,22.80
2009,07,20,13,55,23.00
2009,07,20,13,56,23.20
2009,07,20,13,57,23.30
2009,07,20,13,58,23.50
2009,07,20,13,59,23.70
2009,07,20,14,00,23.80
2009,07,20,14,01,23.80
2009,07,20,14,02,23.80
2009,07,20,14,03,23.60
2009,07,20,14,04,23.10
2009,07,20,14,05,22.80
2009,07,20,14,06,22.60
2009,07,20,14,07,22.50
2009,07,20,14,08,22.30
2009,07,20,14,09,22.30
2009,07,20,14,10,22.10
2009,07,20,14,11,22.00
2009,07,20,14,12,21.80
2009,07,20,14,13,21.70
2009,07,20,14,14,21.70
2009,07,20,14,15,21.70
2009,07,20,14,16,21.60
2009,07,20,14,17,21.60
2009,07,20,14,18,21.50
2009,07,20,14,19,21.30
2009,07,20,14,20,21.20
2009,07,20,14,21,21.10
2009,07,20,14,22,21.10
2009,07,20,14,23,21.20
2009,07,20,14,24,21.20
2009,07,20,14,25,21.20
2009,07,20,14,26,21.10
2009,07,20,14,27,21.10
2009,07,20,14,28,21.00
2009,07,20,14,29,20.80
2009,07,20,14,30,20.60
2009,07,20,14,31,20.50
2009,07,20,14,32,20.40
2009,07,20,14,33,20.30
2009,07,20,14,34,20.30
2009,07,20,14,35,20.30
2009,07,20,14,36,20.30
2009,07,20,14,37,20.30
2009,07,20,14,38,20.30
2009,07,20,14,39,20.30
2009,07,20,14,40,20.40
2009,07,20,14,41,20.50
2009,07,20,14,42,20.70
2009,07,20,14,43,20.90
2009,07,20,14,44,21.00
2009,07,20,14,45,21.10
2009,07,20,14,46,21.20
2009,07,20,14,47,21.40
2009,07,20,14,48,21.70
2009,07,20,14,49,21.80
2009,07,20,14,50,22.00
2009,07,20,14,51,22.10
2009,07,20,14,52,22.30
2009,07,20,14,53,22.50
2009,07,20,14,54,22.70
2009,07,20,14,55,22.80
2009,07,20,14,56,22.80
2009,07,20,14,57,22.90
2009,07,20,14,58,22.90
2009,07,20,14,59,23.00
2009,07,20,15,00,23.00
2009,07,20,15,01,23.10
2009,07,20,15,02,23.10
2009,07,20,15,03,23.10
2009,07,20,15,04,23.00
2009,07,20,15,05,23.00
2009,07,20,15,06,23.00
2009,07,20,15,07,22.90
2009,07,20,15,08,22.90
2009,07,20,15,09,22.80
2009,07,20,15,10,22.90
2009,07,20,15,11,23.00
2009,07,20,15,12,23.00
2009,07,20,15,13,23.00
2009,07,20,15,14,23.00
2009,07,20,15,15,22.90
2009,07,20,15,16,22.90
2009,07,20,15,17,22.90
2009,07,20,15,18,22.80
2009,07,20,15,19,22.60
2009,07,20,15,20,22.40
2009,07,20,15,21,22.30
2009,07,20,15,22,22.30
2009,07,20,15,23,22.30
2009,07,20,15,24,22.30
2009,07,20,15,25,22.30
2009,07,20,15,26,22.30
2009,07,20,15,27,22.40
2009,07,20,15,28,22.40
2009,07,20,15,29,22.40
2009,07,20,15,30,22.30
2009,07,20,15,31,22.20
2009,07,20,15,32,22.20
2009,07,20,15,33,22.20
2009,07,20,15,34,22.20
2009,07,20,15,35,22.30
2009,07,20,15,36,22.30
2009,07,20,15,37,22.30
2009,07,20,15,38,22.20
2009,07,20,15,39,22.10
2009,07,20,15,40,22.10
2009,07,20,15,41,22.00
2009,07,20,15,42,22.10
2009,07,20,15,43,22.20
2009,07,20,15,44,22.20
2009,07,20,15,45,22.20
2009,07,20,15,46,22.10
2009,07,20,15,47,22.10
2009,07,20,15,48,22.00
2009,07,20,15,49,21.80
2009,07,20,15,50,21.60
2009,07,20,15,51,21.30
2009,07,20,15,52,21.20
2009,07,20,15,53,21.10
2009,07,20,15,54,20.90
2009,07,20,15,55,20.90
2009,07,20,15,56,20.70
2009,07,20,15,57,20.60
2009,07,20,15,58,20.50
2009,07,20,15,59,20.40
2009,07,20,16,00,20.30
2009,07,20,16,01,20.20
2009,07,20,16,02,20.20
2009,07,20,16,03,20.20
2009,07,20,16,04,20.30
2009,07,20,16,05,20.30
2009,07,20,16,06,20.30
2009,07,20,16,07,20.50
2009,07,20,16,08,20.70
2009,07,20,16,09,20.90
2009,07,20,16,10,21.00
2009,07,20,16,11,21.10
2009,07,20,16,12,21.30
2009,07,20,16,13,21.30
2009,07,20,16,14,21.40
2009,07,20,16,15,21.50
2009,07,20,16,16,21.60
2009,07,20,16,17,21.70
2009,07,20,16,18,21.80
2009,07,20,16,19,21.90
2009,07,20,16,20,21.90
2009,07,20,16,21,22.00
2009,07,20,16,22,22.00
2009,07,20,16,23,22.00
2009,07,20,16,24,22.00
2009,07,20,16,25,22.10
2009,07,20,16,26,22.20
2009,07,20,16,27,22.10
2009,07,20,16,28,22.00
2009,07,20,16,29,21.80
2009,07,20,16,30,21.80
2009,07,20,16,31,21.90
2009,07,20,16,32,22.00
2009,07,20,16,33,22.10
2009,07,20,16,34,22.20
2009,07,20,16,35,22.10
2009,07,20,16,36,22.10
2009,07,20,16,37,22.00
2009,07,20,16,38,21.90
2009,07,20,16,39,21.70
2009,07,20,16,40,21.60
2009,07,20,16,41,21.60
2009,07,20,16,42,21.50
2009,07,20,16,43,21.50
2009,07,20,16,44,21.30
2009,07,20,16,45,21.20
2009,07,20,16,46,21.20
2009,07,20,16,47,21.20
2009,07,20,16,48,21.20
2009,07,20,16,49,21.20
2009,07,20,16,50,21.20
2009,07,20,16,51,21.10
2009,07,20,16,52,21.10
2009,07,20,16,53,21.10
2009,07,20,16,54,21.00
2009,07,20,16,55,21.00
2009,07,20,16,56,20.90
2009,07,20,16,57,20.80
2009,07,20,16,58,20.80
2009,07,20,16,59,20.70
2009,07,20,17,00,20.60
2009,07,20,17,01,20.60
2009,07,20,17,02,20.70
2009,07,20,17,03,20.80
2009,07,20,17,04,20.90
2009,07,20,17,05,21.00
2009,07,20,17,06,21.00
2009,07,20,17,07,20.90
2009,07,20,17,08,20.80
2009,07,20,17,09,20.90
2009,07,20,17,10,20.90
2009,07,20,17,11,20.90
2009,07,20,17,12,21.00
2009,07,20,17,13,21.10
2009,07,20,17,14,21.20
2009,07,20,17,15,21.20
2009,07,20,17,16,21.30
2009,07,20,17,17,21.40
2009,07,20,17,18,21.60
2009,07,20,17,19,21.70